Location: Austin
(30.3000°N, 97.7500°W)
Time: 05:31:42
(UTC-06:00)

SAR-Lupe-4 - Pass Details

Date: 03 March 2026
Orbit: 480 x 483 km, 98.1° (Epoch: 10 January)

Event Time Altitude Azimuth Distance (km) Brightness Sun altitude
Rises 19:05:47 0° 170° (S) 2,518 7.1 -8.2°
Reaches altitude 10° 19:07:49 10° 172° (S) 1,644 6.2 -8.7°
Maximum altitude 19:11:21 76° 258° (WSW) 496 3.7 -9.4°
Drops below altitude 10° 19:14:54 10° 345° (NNW) 1,656 6.4 -10.2°
Sets 19:16:58 0° 346° (NNW) 2,539 7.4 -10.6°
